<?xml version="1.0"?>
<gpx xmlns="http://www.topografix.com/GPX/1/1" xmlns:xsi="http://www.w3.org/2001/XMLSchema-instance" version="1.1" creator="GPX RubyGem 1.0.0 -- http://dougfales.github.io/gpx/" xsi:schemaLocation="http://www.topografix.com/GPX/1/1 http://www.topografix.com/GPX/1/1/gpx.xsd">
  <metadata>
    <name/>
    <time>2026-05-10T23:42:45+00:00</time>
    <bound minlat="90.0" minlon="180.0" maxlat="-90.0" maxlon="-180.0"/>
  </metadata>
  <trk>
    <name/>
    <trkseg>
      <trkpt lat="50.160159" lon="14.31082">
        <time>1970-01-01T00:00:00+00:00</time>
        <ele>282.0</ele>
      </trkpt>
      <trkpt lat="50.16017" lon="14.310989">
        <time>1970-01-01T00:00:00+00:00</time>
        <ele>282.0</ele>
      </trkpt>
      <trkpt lat="50.160306" lon="14.311052">
        <time>1970-01-01T00:00:00+00:00</time>
        <ele>281.0</ele>
      </trkpt>
      <trkpt lat="50.160366" lon="14.311073">
        <time>1970-01-01T00:00:00+00:00</time>
        <ele>281.0</ele>
      </trkpt>
      <trkpt lat="50.160471" lon="14.311109">
        <time>1970-01-01T00:00:00+00:00</time>
        <ele>281.0</ele>
      </trkpt>
      <trkpt lat="50.160507" lon="14.311121">
        <time>1970-01-01T00:00:00+00:00</time>
        <ele>281.0</ele>
      </trkpt>
      <trkpt lat="50.160568" lon="14.311128">
        <time>1970-01-01T00:00:00+00:00</time>
        <ele>281.0</ele>
      </trkpt>
      <trkpt lat="50.160661" lon="14.311563">
        <time>1970-01-01T00:00:00+00:00</time>
        <ele>282.0</ele>
      </trkpt>
      <trkpt lat="50.16069" lon="14.311625">
        <time>1970-01-01T00:00:00+00:00</time>
        <ele>282.0</ele>
      </trkpt>
      <trkpt lat="50.160712" lon="14.31167">
        <time>1970-01-01T00:00:00+00:00</time>
        <ele>283.0</ele>
      </trkpt>
      <trkpt lat="50.160839" lon="14.311717">
        <time>1970-01-01T00:00:00+00:00</time>
        <ele>285.0</ele>
      </trkpt>
      <trkpt lat="50.160921" lon="14.311717">
        <time>1970-01-01T00:00:00+00:00</time>
        <ele>286.0</ele>
      </trkpt>
      <trkpt lat="50.161239" lon="14.311507">
        <time>1970-01-01T00:00:00+00:00</time>
        <ele>289.0</ele>
      </trkpt>
      <trkpt lat="50.16133" lon="14.311457">
        <time>1970-01-01T00:00:00+00:00</time>
        <ele>289.0</ele>
      </trkpt>
      <trkpt lat="50.161371" lon="14.311463">
        <time>1970-01-01T00:00:00+00:00</time>
        <ele>290.0</ele>
      </trkpt>
      <trkpt lat="50.16131" lon="14.311759">
        <time>1970-01-01T00:00:00+00:00</time>
        <ele>292.0</ele>
      </trkpt>
      <trkpt lat="50.161135" lon="14.311984">
        <time>1970-01-01T00:00:00+00:00</time>
        <ele>291.0</ele>
      </trkpt>
      <trkpt lat="50.161237" lon="14.312239">
        <time>1970-01-01T00:00:00+00:00</time>
        <ele>294.0</ele>
      </trkpt>
      <trkpt lat="50.161268" lon="14.312454">
        <time>1970-01-01T00:00:00+00:00</time>
        <ele>296.0</ele>
      </trkpt>
      <trkpt lat="50.161197" lon="14.312605">
        <time>1970-01-01T00:00:00+00:00</time>
        <ele>295.0</ele>
      </trkpt>
      <trkpt lat="50.161207" lon="14.312691">
        <time>1970-01-01T00:00:00+00:00</time>
        <ele>295.0</ele>
      </trkpt>
      <trkpt lat="50.161135" lon="14.312587">
        <time>1970-01-01T00:00:00+00:00</time>
        <ele>293.0</ele>
      </trkpt>
      <trkpt lat="50.161119" lon="14.312735">
        <time>1970-01-01T00:00:00+00:00</time>
        <ele>292.0</ele>
      </trkpt>
      <trkpt lat="50.161149" lon="14.312962">
        <time>1970-01-01T00:00:00+00:00</time>
        <ele>293.0</ele>
      </trkpt>
      <trkpt lat="50.161186" lon="14.31301">
        <time>1970-01-01T00:00:00+00:00</time>
        <ele>294.0</ele>
      </trkpt>
      <trkpt lat="50.161186" lon="14.31301">
        <time>1970-01-01T00:00:00+00:00</time>
        <ele>294.0</ele>
      </trkpt>
      <trkpt lat="50.161241" lon="14.313081">
        <time>1970-01-01T00:00:00+00:00</time>
        <ele>295.0</ele>
      </trkpt>
      <trkpt lat="50.161284" lon="14.313234">
        <time>1970-01-01T00:00:00+00:00</time>
        <ele>295.0</ele>
      </trkpt>
      <trkpt lat="50.161321" lon="14.313253">
        <time>1970-01-01T00:00:00+00:00</time>
        <ele>295.0</ele>
      </trkpt>
      <trkpt lat="50.16133" lon="14.313454">
        <time>1970-01-01T00:00:00+00:00</time>
        <ele>294.0</ele>
      </trkpt>
      <trkpt lat="50.16136" lon="14.313629">
        <time>1970-01-01T00:00:00+00:00</time>
        <ele>293.0</ele>
      </trkpt>
      <trkpt lat="50.161478" lon="14.31373">
        <time>1970-01-01T00:00:00+00:00</time>
        <ele>294.0</ele>
      </trkpt>
      <trkpt lat="50.16153" lon="14.313931">
        <time>1970-01-01T00:00:00+00:00</time>
        <ele>292.0</ele>
      </trkpt>
      <trkpt lat="50.161506" lon="14.313957">
        <time>1970-01-01T00:00:00+00:00</time>
        <ele>291.0</ele>
      </trkpt>
      <trkpt lat="50.161457" lon="14.314209">
        <time>1970-01-01T00:00:00+00:00</time>
        <ele>288.0</ele>
      </trkpt>
      <trkpt lat="50.161343" lon="14.314358">
        <time>1970-01-01T00:00:00+00:00</time>
        <ele>284.0</ele>
      </trkpt>
      <trkpt lat="50.161258" lon="14.314588">
        <time>1970-01-01T00:00:00+00:00</time>
        <ele>280.0</ele>
      </trkpt>
      <trkpt lat="50.161137" lon="14.314354">
        <time>1970-01-01T00:00:00+00:00</time>
        <ele>280.0</ele>
      </trkpt>
      <trkpt lat="50.161083" lon="14.314022">
        <time>1970-01-01T00:00:00+00:00</time>
        <ele>281.0</ele>
      </trkpt>
      <trkpt lat="50.161002" lon="14.313786">
        <time>1970-01-01T00:00:00+00:00</time>
        <ele>282.0</ele>
      </trkpt>
      <trkpt lat="50.160956" lon="14.313727">
        <time>1970-01-01T00:00:00+00:00</time>
        <ele>281.0</ele>
      </trkpt>
      <trkpt lat="50.16074" lon="14.313591">
        <time>1970-01-01T00:00:00+00:00</time>
        <ele>279.0</ele>
      </trkpt>
      <trkpt lat="50.160694" lon="14.313534">
        <time>1970-01-01T00:00:00+00:00</time>
        <ele>278.0</ele>
      </trkpt>
      <trkpt lat="50.160595" lon="14.312828">
        <time>1970-01-01T00:00:00+00:00</time>
        <ele>280.0</ele>
      </trkpt>
      <trkpt lat="50.160517" lon="14.312319">
        <time>1970-01-01T00:00:00+00:00</time>
        <ele>281.0</ele>
      </trkpt>
      <trkpt lat="50.160425" lon="14.311952">
        <time>1970-01-01T00:00:00+00:00</time>
        <ele>281.0</ele>
      </trkpt>
      <trkpt lat="50.160541" lon="14.311808">
        <time>1970-01-01T00:00:00+00:00</time>
        <ele>281.0</ele>
      </trkpt>
      <trkpt lat="50.160452" lon="14.311182">
        <time>1970-01-01T00:00:00+00:00</time>
        <ele>281.0</ele>
      </trkpt>
      <trkpt lat="50.16037" lon="14.311149">
        <time>1970-01-01T00:00:00+00:00</time>
        <ele>281.0</ele>
      </trkpt>
      <trkpt lat="50.16031" lon="14.311121">
        <time>1970-01-01T00:00:00+00:00</time>
        <ele>281.0</ele>
      </trkpt>
      <trkpt lat="50.160174" lon="14.311057">
        <time>1970-01-01T00:00:00+00:00</time>
        <ele>281.0</ele>
      </trkpt>
      <trkpt lat="50.16017" lon="14.310989">
        <time>1970-01-01T00:00:00+00:00</time>
        <ele>282.0</ele>
      </trkpt>
      <trkpt lat="50.160159" lon="14.31082">
        <time>1970-01-01T00:00:00+00:00</time>
        <ele>282.0</ele>
      </trkpt>
    </trkseg>
  </trk>
</gpx>
